sat.trackr.live / text

‹ back to catalog

STARLINK-33940

NORAD 63831 · 2025-092AD

PAYLOAD ACTIVE UNKNOWN

§ Identity

Operator
Country
US
Launch date
2025-05-04
Launch site
AFETR
Launch vehicle
Mass (kg)
RCS (m²)

Purposes: comms

External: N2YO · Heavens-Above · Gunter

§ Orbital elements

Epoch: 2026-05-24T22:15:29.147616Z

Period
94.27 min
Inclination
43.0019°
Eccentricity
0.0001207
Mean motion
15.27574676 rev/d
Perigee alt
482.2 km
Apogee alt
483.9 km
Semi-major
6,861.2 km
B*
4.8412e-4
RAAN
102.0463°
Arg perigee
260.0434°
Mean anomaly
100.0282°
Rev number
6,032

§ Raw data

STARLINK-339401 63831U 25092AD  26144.92742069  .00013081  00000+0  48412-3 0  99992 63831  43.0019 102.0463 0001207 260.0434 100.0282 15.27574676 60329

JSON: /api/v1/satellites/63831 · /tle

For live sub-satellite position, see the globe view (requires WebGL).

§ Visibility from observer

Set your observer location to see the next 7 days of passes ≥ 10°. The values pass through the URL so the page stays shareable.

No JS? Fill the form by hand. The geolocation button needs JavaScript.